Weather in Sheyno

Russia / Oryol Oblast     52°56′14″N   37°11′49″E
temp.,
°C
wind,
m/s
gust,
m/s
humid.,
%
clouds,
%
prec.,
mm/h
press.,
hPa
HPBL,
m
17 september, fri
fri1700:00+5ene2280100 0.0 102025
03:00+4e1182100 0.0 102010
06:00+4nne118497 0.0 102010
09:00+9ene226292 0.0 1019426
12:00+12ese1148100 0.0 10181243
15:00+13w1144100 0.0 10171389
18:00+9wsw3473100 0.0 1017171
21:00+7ne2489100 1.2 1018179
18 september, sat
sat1800:00+7e5988100 2.6 1019485
03:00+7e51189100 5.4 1019492
06:00+7e61286100 0.8 1019553
09:00+6e71483100 1.9 1019616
12:00+6ese81486100 3.2 1019632
15:00+7ese71392100 9.4 1019586
18:00+7ese71494100 5.4 1018533
21:00+7e81693100 11.5 1018521
19 september, sun
sun1900:00+7e71594100 6.6 1017535
03:00+7e81695100 13.9 1017549
06:00+7ese81694100 6.6 1015592
09:00+7ese81793100 10.8 1015638
12:00+7ese91794100 3.2 1014684
15:00+7ese71495100 7.8 1016696
18:00+7e61296100 3.8 1015605
21:00+7e61195100 6.5 1014516
20 september, mon
mon2000:00+7ene5997100 0.0 1013405
03:00+7ene3698100 0.0 1012279
06:00+8ene359991 0.0 1011186
09:00+9ene3798100 0.1 1010287
12:00+11e5897100 0.2 1010327
15:00+11e4998100 4.1 1009404
18:00+13ssw239192 0.8 100944
21:00+10sw359549 1.2 1011101
21 september, tue
tue2100:00+10sw229064 0.2 101288
03:00+7ssw22924 0.2 101231
06:00+6s33907 0.0 101341
09:00+10ssw35786 0.0 1013326
12:00+13ssw346253 0.0 10131024
15:00+13wsw3359100 0.0 10131111
18:00+11wnw3572100 0.0 1013272
21:00+9wnw4783100 0.0 1014324